Location: Godiavel Galaoual
(15.2485°N, 12.6604°W)
Time: 09:03:05
(UTC+00:00)

Courier 1B Rocket - Visible Passes

Search period start: 15 June 2021 00:00
Search period end: 25 June 2021 00:00
Orbit: 920 x 1202 km, 28.2° (Epoch: 14 June)

Date Brightness Start Highest point End Pass type
(mag) Time Alt. Az. Time Alt. Az. Time Alt. Az.
15 Jun 6.2 03:33:32 34° ESE 03:33:32 34° ESE 03:37:13 10° ESE visible
15 Jun 5.9 05:20:01 17° WSW 05:23:51 29° SSW 05:29:51 10° SSE visible
15 Jun 6.0 20:40:16 10° W 20:46:32 43° NNW 20:52:31 10° NE visible
15 Jun 6.7 22:35:42 10° WNW 22:40:43 25° N 22:40:43 25° N visible
16 Jun 5.6 04:24:07 38° S 04:24:07 38° S 04:29:13 10° SE visible
16 Jun 5.7 19:38:36 10° WSW 19:45:21 59° NNW 19:51:42 10° ENE visible
16 Jun 6.6 21:33:56 10° WNW 21:39:26 28° N 21:43:40 14° NE visible
16 Jun 7.4 23:28:52 10° NW 23:30:03 14° NW 23:30:03 14° NW visible
17 Jun 7.4 03:28:09 11° SE 03:28:09 11° SE 03:28:19 10° SE visible
17 Jun 6.4 05:14:37 18° SW 05:15:09 18° SSW 05:19:38 10° S visible
17 Jun 6.5 20:32:04 10° WNW 20:38:05 34° NNW 20:43:49 10° NE visible
17 Jun 6.7 22:27:28 10° NW 22:32:33 24° N 22:32:53 24° N visible
18 Jun 7.0 04:18:32 14° SSE 04:18:32 14° SSE 04:19:36 10° SSE visible
18 Jun 6.7 21:25:47 10° WNW 21:31:07 25° N 21:35:37 12° NE visible
18 Jun 7.3 23:20:17 10° NW 23:21:59 17° NW 23:21:59 17° NW visible
19 Jun 6.7 20:23:55 10° WNW 20:29:42 29° N 20:35:12 10° NE visible
19 Jun 6.6 22:19:01 10° NW 22:24:17 26° N 22:24:39 25° N visible
20 Jun 6.7 21:17:30 10° NW 21:22:51 25° N 21:27:15 13° NE visible
20 Jun 7.1 23:11:32 10° NW 23:13:37 20° NW 23:13:37 20° NW visible
21 Jun 6.8 20:15:43 10° WNW 20:21:22 26° N 20:26:44 10° NE visible
21 Jun 6.3 22:10:23 10° NW 22:15:59 29° N 22:16:12 29° NNE visible
22 Jun 6.6 21:09:00 10° NW 21:14:34 27° N 21:18:45 14° NE visible
22 Jun 6.9 23:02:41 10° NW 23:05:06 23° NW 23:05:06 23° NW visible
23 Jun 6.8 20:07:22 10° NW 20:13:05 26° N 20:18:29 10° NE visible
23 Jun 6.0 22:01:34 10° NW 22:07:37 37° NNE 22:07:38 37° NNE visible
24 Jun 6.4 21:00:18 10° NW 21:06:15 31° N 21:10:11 17° ENE visible
24 Jun 6.8 22:53:50 10° WNW 22:56:33 26° NW 22:56:33 26° NW visible
